Voltar ao catálogo

FENGYUN 1C DEB

AtivoPO
NORAD 31554·DEBRIS·🇨🇳 China

Lançado May 10, 1999 de Taiyuan Satellite Launch Center

Loading…

Próximas Passagens (próximas 24 horas)

TLE

AtualizadoSource: Space-Track

Época: Sep 11, 2026, 09:25 UTC

1 31554U 99025BYV 26254.39238771  .00006790  00000-0  14848-2 0  9991
2 31554  98.9162  51.4072 0033731 272.8621  86.8716 14.57758526688221

Acompanhe FENGYUN 1C DEB em tempo real com AllMySat

Download on the App Store